Location: Cuzcurrita-R�o Tir�n
(42.5415°N, 2.9642°W)
Time: 17:24:24
(UTC+00:00)

COSMO-SKYMED 1 - Visible Passes

Search period start: 14 May 2021 00:00
Search period end: 24 May 2021 00:00
Orbit: 621 x 623 km, 97.9° (Epoch: 14 May)

Date Brightness Start Highest point End Pass type
(mag) Time Alt. Az. Time Alt. Az. Time Alt. Az.
15 May 6.4 03:58:02 10° ENE 03:59:20 11° ENE 04:00:39 10° NE visible
16 May 5.8 04:14:22 10° ESE 04:17:08 17° ENE 04:19:54 10° NNE visible
21 May 6.0 04:08:46 10° E 04:11:10 15° ENE 04:13:35 10° NNE visible
